User: anonymous   Login
Location: *
(17.3280°S, 114.7300°W)
Time: 07:27:01
(UTC+00:00)
Language:

Cosmos 1745 Rocket - Orbit

View from above orbital plane
View from above orbital plane
View from above satellite
View from above satellite

Ground track
Ground track

The orbit data is extracted from the following two-line orbital elements,

1 16728U 86037B   20299.81199385 -.00000038 +00000-0 -54477-4 0  9998
2 16728 082.9534 147.9463 0031277 014.2701 356.8358 13.76735171729092
Epoch (UTC): 25 October 2020 19:29:16
Eccentricity: 0.0031277
inclination: 82.9534°
perigee height: 952 km
apogee height: 998 km
right ascension of ascending node: 147.9463°
argument of perigee: 14.2701°
revolutions per day: 13.76735171
mean anomaly at epoch: 356.8358°
orbit number at epoch: 72909

The dashed part of the orbit path shows where the satellite is in the earth's shadow,  

DLR